Time,TemperatureF,DewpointF,PressureIn,WindDirection,WindDirectionDegrees,WindSpeedMPH,WindSpeedGustMPH,Humidity,HourlyPrecipIn,Conditions,Clouds,dailyrainin,SoftwareType,DateUTC
2013-04-26 00:03:00,41.9,38.0,30.15,SSW,206,0.0,-999.0,87,-99.99,,,0.06,weatherlink.com 1.10,2013-04-26 04:03:00,
2013-04-26 00:18:00,41.6,38.0,30.16,SSW,206,0.0,-999.0,88,-99.99,,,0.06,weatherlink.com 1.10,2013-04-26 04:18:00,
2013-04-26 00:33:00,41.3,38.0,30.16,SSW,206,0.0,-999.0,88,-99.99,,,0.00,weatherlink.com 1.10,2013-04-26 04:33:00,
2013-04-26 00:48:00,41.1,38.0,30.16,SSW,206,0.0,-999.0,89,-99.99,,,0.00,weatherlink.com 1.10,2013-04-26 04:48:00,
2013-04-26 01:03:00,40.8,38.0,30.17,SSW,206,0.0,-999.0,89,-99.99,,,0.00,weatherlink.com 1.10,2013-04-26 05:03:00,
2013-04-26 01:18:00,40.5,38.0,30.17,SSW,206,0.0,-999.0,89,-99.99,,,0.00,weatherlink.com 1.10,2013-04-26 05:18:00,
2013-04-26 01:33:00,40.1,37.0,30.17,SSW,206,0.0,-999.0,89,-99.99,,,0.00,weatherlink.com 1.10,2013-04-26 05:33:00,
2013-04-26 01:48:00,39.8,37.0,30.17,SSW,206,0.0,-999.0,89,-99.99,,,0.00,weatherlink.com 1.10,2013-04-26 05:48:00,
2013-04-26 02:03:00,40.5,38.0,30.17,SSW,206,0.0,-999.0,90,-99.99,,,0.00,weatherlink.com 1.10,2013-04-26 06:03:00,
2013-04-26 02:18:00,40.6,38.0,30.17,North,358,0.0,-999.0,89,-99.99,,,0.00,weatherlink.com 1.10,2013-04-26 06:18:00,
2013-04-26 02:33:00,40.9,38.0,30.17,NE,48,1.0,-999.0,89,-99.99,,,0.00,weatherlink.com 1.10,2013-04-26 06:33:00,
2013-04-26 02:49:00,41.1,38.0,30.18,NE,48,0.0,-999.0,88,-99.99,,,0.00,weatherlink.com 1.10,2013-04-26 06:49:00,
2013-04-26 03:04:00,41.1,38.0,30.18,NE,48,0.0,-999.0,87,-99.99,,,0.00,weatherlink.com 1.10,2013-04-26 07:04:00,
2013-04-26 03:19:00,41.2,37.0,30.18,NE,48,0.0,-999.0,86,-99.99,,,0.00,weatherlink.com 1.10,2013-04-26 07:19:00,
2013-04-26 03:34:00,40.8,37.0,30.19,NE,48,0.0,-999.0,86,-99.99,,,0.00,weatherlink.com 1.10,2013-04-26 07:34:00,
2013-04-26 03:49:00,40.5,37.0,30.19,NE,48,0.0,-999.0,86,-99.99,,,0.00,weatherlink.com 1.10,2013-04-26 07:49:00,
2013-04-26 04:04:00,40.5,36.0,30.19,NE,54,0.0,-999.0,85,-99.99,,,0.00,weatherlink.com 1.10,2013-04-26 08:04:00,
2013-04-26 04:19:00,41.2,37.0,30.20,ENE,70,2.0,-999.0,84,-99.99,,,0.00,weatherlink.com 1.10,2013-04-26 08:19:00,
2013-04-26 04:34:00,42.3,37.0,30.20,East,88,5.0,-999.0,80,-99.99,,,0.00,weatherlink.com 1.10,2013-04-26 08:34:00,
2013-04-26 04:49:00,42.6,37.0,30.20,East,84,0.0,-999.0,79,-99.99,,,0.00,weatherlink.com 1.10,2013-04-26 08:49:00,
2013-04-26 05:04:00,43.1,37.0,30.21,East,89,3.0,-999.0,78,-99.99,,,0.00,weatherlink.com 1.10,2013-04-26 09:04:00,
2013-04-26 05:19:00,43.2,37.0,30.22,East,99,0.0,-999.0,78,-99.99,,,0.00,weatherlink.com 1.10,2013-04-26 09:19:00,
2013-04-26 05:34:00,43.5,37.0,30.22,SSE,154,0.0,-999.0,78,-99.99,,,0.00,weatherlink.com 1.10,2013-04-26 09:34:00,
2013-04-26 05:49:00,44.1,38.0,30.22,ENE,72,6.0,-999.0,78,-99.99,,,0.00,weatherlink.com 1.10,2013-04-26 09:49:00,
2013-04-26 06:04:00,44.5,38.0,30.23,ESE,115,2.0,-999.0,78,-99.99,,,0.00,weatherlink.com 1.10,2013-04-26 10:04:00,
2013-04-26 06:19:00,45.1,38.0,30.23,SSE,151,2.0,-999.0,77,-99.99,,,0.00,weatherlink.com 1.10,2013-04-26 10:19:00,
2013-04-26 06:34:00,45.8,39.0,30.24,ESE,119,8.0,-999.0,76,-99.99,,,0.00,weatherlink.com 1.10,2013-04-26 10:34:00,
2013-04-26 06:49:00,45.8,38.0,30.25,ESE,123,3.0,-999.0,75,-99.99,,,0.00,weatherlink.com 1.10,2013-04-26 10:49:00,
2013-04-26 07:04:00,46.7,38.0,30.25,SE,142,6.0,-999.0,73,-99.99,,,0.00,weatherlink.com 1.10,2013-04-26 11:04:00,
2013-04-26 07:19:00,48.0,37.0,30.25,ESE,119,5.0,-999.0,66,-99.99,,,0.00,weatherlink.com 1.10,2013-04-26 11:19:00,
2013-04-26 07:34:00,48.8,35.0,30.26,SSE,149,5.0,-999.0,60,-99.99,,,0.00,weatherlink.com 1.10,2013-04-26 11:34:00,
2013-04-26 07:49:00,49.2,35.0,30.26,SSE,168,3.0,-999.0,58,-99.99,,,0.00,weatherlink.com 1.10,2013-04-26 11:49:00,
2013-04-26 08:04:00,49.9,35.0,30.27,SE,139,8.0,-999.0,58,-99.99,,,0.00,weatherlink.com 1.10,2013-04-26 12:04:00,
2013-04-26 08:19:00,50.4,35.0,30.27,SE,140,2.0,-999.0,55,-99.99,,,0.00,weatherlink.com 1.10,2013-04-26 12:19:00,
2013-04-26 08:34:00,51.4,35.0,30.27,SSE,147,4.0,-999.0,53,-99.99,,,0.00,weatherlink.com 1.10,2013-04-26 12:34:00,
2013-04-26 08:49:00,51.9,35.0,30.28,South,171,7.0,-999.0,53,-99.99,,,0.00,weatherlink.com 1.10,2013-04-26 12:49:00,
2013-04-26 09:04:00,52.3,35.0,30.28,SSE,156,5.0,-999.0,52,-99.99,,,0.00,weatherlink.com 1.10,2013-04-26 13:04:00,
2013-04-26 09:19:00,52.6,36.0,30.28,South,178,8.0,-999.0,53,-99.99,,,0.00,weatherlink.com 1.10,2013-04-26 13:19:00,
2013-04-26 09:34:00,52.8,35.0,30.28,SE,133,5.0,-999.0,51,-99.99,,,0.00,weatherlink.com 1.10,2013-04-26 13:34:00,
2013-04-26 09:49:00,53.8,34.0,30.29,SE,127,8.0,-999.0,48,-99.99,,,0.00,weatherlink.com 1.10,2013-04-26 13:49:00,
2013-04-26 10:04:00,54.1,34.0,30.30,East,84,6.0,-999.0,47,-99.99,,,0.00,weatherlink.com 1.10,2013-04-26 14:04:00,
2013-04-26 10:34:00,54.7,35.0,30.30,South,171,6.0,-999.0,47,-99.99,,,0.00,weatherlink.com 1.10,2013-04-26 14:34:00,
2013-04-26 10:49:00,55.7,36.0,30.30,SE,142,10.0,-999.0,47,-99.99,,,0.00,weatherlink.com 1.10,2013-04-26 14:49:00,
2013-04-26 11:04:00,56.5,37.0,30.30,SSE,157,8.0,-999.0,49,-99.99,,,0.00,weatherlink.com 1.10,2013-04-26 15:04:00,
2013-04-26 11:19:00,56.2,35.0,30.30,SSE,151,5.0,-999.0,45,-99.99,,,0.00,weatherlink.com 1.10,2013-04-26 15:19:00,
2013-04-26 11:35:00,56.9,36.0,30.30,South,170,4.0,-999.0,46,-99.99,,,0.00,weatherlink.com 1.10,2013-04-26 15:35:00,
2013-04-26 11:50:00,57.6,39.0,30.30,South,171,7.0,-999.0,50,-99.99,,,0.00,weatherlink.com 1.10,2013-04-26 15:50:00,
2013-04-26 12:05:00,56.2,38.0,30.29,ESE,103,7.0,-999.0,50,-99.99,,,0.00,weatherlink.com 1.10,2013-04-26 16:05:00,
2013-04-26 12:20:00,56.6,38.0,30.29,ESE,115,7.0,-999.0,50,-99.99,,,0.00,weatherlink.com 1.10,2013-04-26 16:20:00,
2013-04-26 12:35:00,56.3,39.0,30.29,ESE,116,1.0,-999.0,53,-99.99,,,0.00,weatherlink.com 1.10,2013-04-26 16:35:00,
2013-04-26 12:50:00,55.0,37.0,30.29,ENE,68,9.0,-999.0,51,-99.99,,,0.00,weatherlink.com 1.10,2013-04-26 16:50:00,
2013-04-26 13:05:00,55.4,38.0,30.29,SE,132,7.0,-999.0,52,-99.99,,,0.00,weatherlink.com 1.10,2013-04-26 17:05:00,
2013-04-26 13:20:00,55.3,38.0,30.28,ESE,123,7.0,-999.0,53,-99.99,,,0.00,weatherlink.com 1.10,2013-04-26 17:20:00,
2013-04-26 13:35:00,55.6,38.0,30.28,SE,126,3.0,-999.0,51,-99.99,,,0.00,weatherlink.com 1.10,2013-04-26 17:35:00,
2013-04-26 13:50:00,55.4,38.0,30.28,SE,130,0.0,-999.0,52,-99.99,,,0.00,weatherlink.com 1.10,2013-04-26 17:50:00,
2013-04-26 14:05:00,55.0,38.0,30.28,ESE,108,6.0,-999.0,54,-99.99,,,0.00,weatherlink.com 1.10,2013-04-26 18:05:00,
2013-04-26 14:20:00,54.2,38.0,30.28,ESE,116,5.0,-999.0,54,-99.99,,,0.00,weatherlink.com 1.10,2013-04-26 18:20:00,
2013-04-26 14:35:00,54.1,39.0,30.28,SE,130,10.0,-999.0,56,-99.99,,,0.00,weatherlink.com 1.10,2013-04-26 18:35:00,
2013-04-26 14:50:00,54.4,40.0,30.28,SE,144,3.0,-999.0,58,-99.99,,,0.00,weatherlink.com 1.10,2013-04-26 18:50:00,
2013-04-26 15:05:00,54.1,40.0,30.28,ESE,122,3.0,-999.0,59,-99.99,,,0.00,weatherlink.com 1.10,2013-04-26 19:05:00,
2013-04-26 15:20:00,54.7,39.0,30.27,SE,142,7.0,-999.0,56,-99.99,,,0.00,weatherlink.com 1.10,2013-04-26 19:20:00,
2013-04-26 15:35:00,54.5,40.0,30.27,ESE,115,8.0,-999.0,58,-99.99,,,0.00,weatherlink.com 1.10,2013-04-26 19:35:00,
2013-04-26 15:50:00,53.5,40.0,30.27,East,88,3.0,-999.0,61,-99.99,,,0.00,weatherlink.com 1.10,2013-04-26 19:50:00,
2013-04-26 16:05:00,53.6,40.0,30.27,ESE,123,7.0,-999.0,60,-99.99,,,0.00,weatherlink.com 1.10,2013-04-26 20:05:00,
2013-04-26 16:20:00,52.3,40.0,30.27,SE,143,2.0,-999.0,63,-99.99,,,0.00,weatherlink.com 1.10,2013-04-26 20:20:00,
2013-04-26 16:35:00,51.6,40.0,30.27,East,96,8.0,-999.0,65,-99.99,,,0.00,weatherlink.com 1.10,2013-04-26 20:35:00,
2013-04-26 16:50:00,51.3,40.0,30.28,ESE,103,3.0,-999.0,65,-99.99,,,0.00,weatherlink.com 1.10,2013-04-26 20:50:00,
2013-04-26 17:05:00,51.7,41.0,30.28,East,96,9.0,-999.0,66,-99.99,,,0.00,weatherlink.com 1.10,2013-04-26 21:05:00,
2013-04-26 17:20:00,52.6,41.0,30.28,SE,132,7.0,-999.0,64,-99.99,,,0.00,weatherlink.com 1.10,2013-04-26 21:20:00,
2013-04-26 17:35:00,52.8,40.0,30.28,East,82,4.0,-999.0,63,-99.99,,,0.00,weatherlink.com 1.10,2013-04-26 21:35:00,
2013-04-26 17:50:00,52.8,40.0,30.29,SE,142,5.0,-999.0,62,-99.99,,,0.00,weatherlink.com 1.10,2013-04-26 21:50:00,
2013-04-26 18:05:00,52.6,40.0,30.29,SE,137,5.0,-999.0,63,-99.99,,,0.00,weatherlink.com 1.10,2013-04-26 22:05:00,
2013-04-26 18:20:00,52.5,40.0,30.30,SSE,147,4.0,-999.0,63,-99.99,,,0.00,weatherlink.com 1.10,2013-04-26 22:20:00,
2013-04-26 18:35:00,52.0,38.0,30.30,SSE,161,9.0,-999.0,60,-99.99,,,0.00,weatherlink.com 1.10,2013-04-26 22:35:00,
2013-04-26 18:50:00,51.4,39.0,30.30,SE,137,4.0,-999.0,62,-99.99,,,0.00,weatherlink.com 1.10,2013-04-26 22:50:00,
2013-04-26 19:05:00,50.8,39.0,30.31,SSE,153,2.0,-999.0,64,-99.99,,,0.00,weatherlink.com 1.10,2013-04-26 23:05:00,
2013-04-26 19:20:00,50.1,39.0,30.30,SE,143,3.0,-999.0,67,-99.99,,,0.00,weatherlink.com 1.10,2013-04-26 23:20:00,
2013-04-26 19:35:00,49.4,40.0,30.31,SE,139,2.0,-999.0,69,-99.99,,,0.00,weatherlink.com 1.10,2013-04-26 23:35:00,
2013-04-26 19:50:00,48.6,40.0,30.31,ESE,123,0.0,-999.0,71,-99.99,,,0.00,weatherlink.com 1.10,2013-04-26 23:50:00,
2013-04-26 20:20:00,47.1,40.0,30.32,SE,134,0.0,-999.0,76,-99.99,,,0.00,weatherlink.com 1.10,2013-04-27 00:20:00,
2013-04-26 20:35:00,46.5,40.0,30.32,SE,134,2.0,-999.0,78,-99.99,,,0.00,weatherlink.com 1.10,2013-04-27 00:35:00,
2013-04-26 20:50:00,46.1,40.0,30.33,SSE,151,0.0,-999.0,80,-99.99,,,0.00,weatherlink.com 1.10,2013-04-27 00:50:00,
2013-04-26 21:05:00,45.7,40.0,30.33,SSE,151,2.0,-999.0,81,-99.99,,,0.00,weatherlink.com 1.10,2013-04-27 01:05:00,
2013-04-26 21:20:00,45.2,40.0,30.33,SSE,150,0.0,-999.0,82,-99.99,,,0.00,weatherlink.com 1.10,2013-04-27 01:20:00,
2013-04-26 21:35:00,44.9,40.0,30.33,SE,146,2.0,-999.0,83,-99.99,,,0.00,weatherlink.com 1.10,2013-04-27 01:35:00,
2013-04-26 21:50:00,44.3,40.0,30.33,SE,144,0.0,-999.0,84,-99.99,,,0.00,weatherlink.com 1.10,2013-04-27 01:50:00,
2013-04-26 22:05:00,44.2,40.0,30.33,SE,144,0.0,-999.0,85,-99.99,,,0.00,weatherlink.com 1.10,2013-04-27 02:05:00,
2013-04-26 22:20:00,44.2,40.0,30.33,SE,144,0.0,-999.0,85,-99.99,,,0.00,weatherlink.com 1.10,2013-04-27 02:20:00,
2013-04-26 22:35:00,44.3,40.0,30.33,SE,146,0.0,-999.0,86,-99.99,,,0.00,weatherlink.com 1.10,2013-04-27 02:35:00,
2013-04-26 22:50:00,44.5,41.0,30.33,ESE,116,2.0,-999.0,86,-99.99,,,0.00,weatherlink.com 1.10,2013-04-27 02:50:00,
2013-04-26 23:05:00,44.1,40.0,30.33,ESE,123,0.0,-999.0,86,-99.99,,,0.00,weatherlink.com 1.10,2013-04-27 03:05:00,
2013-04-26 23:20:00,43.8,40.0,30.32,ESE,123,0.0,-999.0,86,-99.99,,,0.00,weatherlink.com 1.10,2013-04-27 03:20:00,
2013-04-26 23:35:00,43.5,40.0,30.33,ESE,123,0.0,-999.0,87,-99.99,,,0.00,weatherlink.com 1.10,2013-04-27 03:35:00,
2013-04-26 23:50:00,43.1,40.0,30.33,ESE,123,0.0,-999.0,87,-99.99,,,0.00,weatherlink.com 1.10,2013-04-27 03:50:00,